TimeCDT,TemperatureF,Dew PointF,Humidity,Sea Level PressureIn,VisibilityMPH,Wind Direction,Wind SpeedMPH,Gust SpeedMPH,PrecipitationIn,Events,Conditions,WindDirDegrees,DateUTC
12:53 AM,57.9,51.1,78,30.02,10.0,SE,6.9,-,N/A,,Partly Cloudy,140,2013-10-10 05:53:00
1:53 AM,55.9,51.1,84,30.02,10.0,SE,5.8,-,N/A,,Partly Cloudy,140,2013-10-10 06:53:00
2:53 AM,55.9,52.0,87,30.02,10.0,SE,4.6,-,N/A,,Partly Cloudy,140,2013-10-10 07:53:00
3:53 AM,54.0,52.0,93,30.02,10.0,ESE,3.5,-,N/A,,Partly Cloudy,120,2013-10-10 08:53:00
4:53 AM,55.0,52.0,89,30.03,10.0,Calm,Calm,-,N/A,,Mostly Cloudy,0,2013-10-10 09:53:00
5:53 AM,55.0,53.1,93,30.04,10.0,East,3.5,-,N/A,,Mostly Cloudy,100,2013-10-10 10:53:00
6:53 AM,55.0,53.1,93,30.04,10.0,East,4.6,-,N/A,,Mostly Cloudy,100,2013-10-10 11:53:00
7:53 AM,55.0,53.1,93,30.04,10.0,SE,5.8,-,N/A,,Scattered Clouds,130,2013-10-10 12:53:00
8:53 AM,61.0,55.0,81,30.04,10.0,SE,6.9,-,N/A,,Partly Cloudy,140,2013-10-10 13:53:00
9:53 AM,66.0,55.9,70,30.05,10.0,SSE,10.4,-,N/A,,Partly Cloudy,160,2013-10-10 14:53:00
10:53 AM,69.1,57.0,65,30.04,10.0,SSE,12.7,-,N/A,,Partly Cloudy,160,2013-10-10 15:53:00
11:53 AM,73.9,59.0,59,30.02,10.0,South,15.0,-,N/A,,Partly Cloudy,180,2013-10-10 16:53:00
12:53 PM,77.0,59.0,54,29.99,10.0,South,16.1,21.9,N/A,,Clear,170,2013-10-10 17:53:00
1:53 PM,78.1,60.1,54,29.96,10.0,SSE,12.7,-,N/A,,Partly Cloudy,160,2013-10-10 18:53:00
2:53 PM,80.1,59.0,48,29.93,10.0,South,13.8,21.9,N/A,,Partly Cloudy,180,2013-10-10 19:53:00
3:53 PM,80.1,57.9,47,29.91,10.0,SE,16.1,-,N/A,,Partly Cloudy,140,2013-10-10 20:53:00
4:53 PM,79.0,59.0,50,29.90,10.0,SE,13.8,-,N/A,,Clear,140,2013-10-10 21:53:00
5:53 PM,78.1,55.9,46,29.88,10.0,SSE,15.0,23.0,N/A,,Clear,150,2013-10-10 22:53:00
6:53 PM,75.0,57.0,53,29.87,10.0,SE,12.7,-,N/A,,Clear,140,2013-10-10 23:53:00
7:53 PM,70.0,57.0,63,29.88,10.0,SE,8.1,-,N/A,,Clear,130,2013-10-11 00:53:00
8:53 PM,70.0,55.9,61,29.88,10.0,SSE,9.2,-,N/A,,Clear,150,2013-10-11 01:53:00
9:53 PM,70.0,57.0,63,29.88,10.0,SSE,10.4,-,N/A,,Clear,150,2013-10-11 02:53:00
10:53 PM,69.1,57.0,65,29.86,10.0,South,13.8,-,N/A,,Clear,170,2013-10-11 03:53:00
11:53 PM,68.0,55.9,65,29.84,10.0,SSE,15.0,-,N/A,,Clear,160,2013-10-11 04:53:00